SCP
0 0 0 0 0 0 0 0 0 0 0 0 0 0 0 0 0 0 0 0 0 0 1 0 0 0 0 0 0 0 0 0 0 0 0 0 0 0 0 0 0 0 0
0 0 0 0 0 0 0 0 0 0 0 0 0 0 0 0 0 0 0 0 0 0 1 1 0 0 0 0 0 0 0 0 0 0 0 0 0 0 0 0 0 0 0
0 0 0 0 0 0 0 0 0 0 0 0 0 0 0 0 0 0 0 0 1 0 0 1 1 0 0 0 0 0 0 0 0 0 0 0 0 0 0 0 0 0 0
0 0 0 0 0 0 0 0 0 0 0 0 0 0 0 0 0 0 0 0 0 0 1 0 0 1 0 0 0 0 0 0 0 0 0 0 0 0 0 0 0 0 0
0 0 0 0 0 0 0 0 0 0 0 0 0 0 0 0 0 0 0 0 0 0 0 0 1 1 1 0 0 0 0 0 0 0 0 0 0 0 0 0 0 0 0
0 0 0 0 0 0 0 0 0 0 0 0 0 0 0 0 0 0 0 0 0 0 0 0 0 0 0 1 0 0 0 0 0 0 0 0 0 0 0 0 0 0 0
0 0 0 0 0 0 0 0 0 0 0 0 0 0 0 0 0 0 0 0 0 0 0 0 0 0 1 0 0 0 0 0 0 0 0 0 0 0 0 0 0 0 0
0 0 0 0 0 0 0 0 0 0 0 0 -0 -0 0 0 0 0 0 0 0 0 0 0 0 0 0 1 1 0 0 0 0 0 0 0 0 0 0 0 0 0 0
0 0 0 0 0 0 0 0 0 0 0 0 0 0 0 0 0 0 0 0 0 0 0 0 0 0 0 0 0 0 0 0 0 0 0 0 0 0 0 0 0 0 0
0 0 0 0 0 0 0 0 0 0 0 0 0 0 0 0 0 0 0 0 0 0 0 0 0 0 0 0 0 0 0 0 0 0 0 0 0 0 0 0 0 0 0
0 0 0 0 0 0 0 0 0 0 0 0 0 0 0 0 0 0 0 0 0 0 0 0 0 0 0 0 0 0 0 0 0 0 0 0 0 0 0 0 0 0 0
0 0 0 0 0 0 0 0 0 0 0 0 0 0 0 0 0 0 0 0 0 0 0 0 0 0 0 0 0 0 0 0 0 0 0 0 0 0 0 0 0 0 0
0 0 0 0 0 0 0 0 0 0 0 0 0 0 0 0 0 0 0 0 0 0 0 0 0 0 0 0 0 0 0 0 0 0 0 0 0 0 0 0 0 0 0
0 0 0 0 0 0 0 0 0 0 0 0 0 0 0 0 0 0 0 0 0 0 0 0 0 0 0 0 0 0 0 0 0 0 0 0 0 0 0 0 0 0 -0
0 0 0 0 0 0 0 0 0 0 0 0 0 0 0 0 0 0 0 0 0 0 0 0 0 0 0 0 0 0 0 0 0 0 0 0 0 0 0 0 0 0 -0
0 0 0 0 0 0 0 0 0 0 0 0 0 0 0 0 0 0 0 0 0 0 0 0 0 0 0 0 0 0 0 0 0 0 0 0 0 0 0 0 0 0 0
0 0 0 0 0 0 0 0 0 0 0 0 0 0 0 0 0 0 0 0 0 0 0 0 0 0 0 0 0 0 0 0 0 0 0 0 0 0 0 0 0 0 0
0 0 0 0 0 0 0 0 0 0 0 0 0 0 0 0 0 0 0 0 0 0 0 0 0 0 0 0 0 0 0 0 0 0 0 0 0 0 0 0 0 0 0
0 0 0 0 0 0 0 0 0 0 0 0 0 0 0 0 0 0 0 0 0 0 0 0 0 0 0 0 0 0 0 0 0 0 0 0 0 0 0 0 0 0 0
0 0 0 0 0 0 0 0 0 0 0 0 0 0 0 0 0 0 0 0 0 0 0 0 0 0 0 0 0 0 0 0 0 0 0 0 0 0 0 0 0 0 0
0 0 0 0 0 0 0 0 0 0 0 0 0 0 0 0 0 0 0 0 0 0 0 0 0 0 0 0 0 0 0 0 0 0 0 0 0 0 0 0 0 0 0
0 0 0 0 0 0 0 0 0 0 0 0 0 0 0 0 0 0 0 0 0 0 0 0 0 0 0 0 0 0 0 0 0 0 0 0 0 0 0 0 0 0 0
0 0 0 0 0 0 0 0 0 0 0 0 0 0 0 0 0 0 0 0 0 0 0 0 0 0 0 0 0 0 0 0 0 0 0 0 0 0 0 0 0 0 0
0 0 0 0 0 0 0 0 0 0 0 0 0 0 0 0 0 0 0 0 0 0 0 0 0 0 0 0 0 0 0 0 0 0 0 0 0 0 0 0 0 0 0
0 0 0 0 0 0 0 0 0 0 0 0 0 0 0 0 0 0 0 0 0 0 0 0 0 0 0 0 0 0 0 0 0 0 0 0 0 0 0 0 0 0 0
0 0 0 0 0 0 0 0 0 0 0 0 0 0 0 0 0 0 0 0 0 0 0 0 0 0 0 0 0 0 0 0 0 0 0 0 0 0 0 0 0 0 0
Wind_Speed_500mb
19 20 24 29 32 32 31 30 32 34 33 33 33 34 31 35 35 37 29 33 30 24 35 34 37 36 34 34 34 31 29 26 24 23 25 22 20 21 20 18 17 16 14
10 9 12 16 21 25 29 31 31 34 37 43 45 45 43 32 25 27 26 25 30 30 32 36 35 41 38 39 36 35 31 27 26 24 25 22 20 20 19 17 18 16 15
3 9 13 16 17 19 21 23 24 27 29 31 32 32 34 34 30 26 26 31 28 32 36 42 37 41 38 42 39 37 32 29 29 26 26 22 18 20 18 16 18 17 14
8 14 19 22 23 24 25 25 26 26 29 32 34 32 31 33 37 42 40 37 39 35 23 29 39 42 40 45 41 35 34 31 32 28 28 22 18 18 17 14 14 17 14
10 17 20 23 26 26 27 28 29 33 36 36 36 34 33 29 24 26 36 43 39 33 30 28 29 42 46 42 43 42 34 33 35 33 31 25 21 18 18 15 13 15 14
9 15 18 23 25 26 28 29 30 31 34 38 39 37 35 27 13 7 9 14 19 28 33 29 30 35 40 43 40 45 37 33 37 36 34 29 22 19 17 16 11 13 14
6 13 16 21 25 28 30 33 33 33 34 40 43 39 27 23 14 5 4 8 14 12 21 24 24 30 41 43 43 44 44 42 36 40 38 31 25 22 16 17 10 12 13
8 13 15 21 25 27 30 33 36 36 34 38 43 40 29 18 5 26 13 16 16 14 14 18 26 35 38 43 43 46 48 46 38 37 41 35 28 24 17 18 10 9 11
12 15 16 20 23 29 35 38 36 36 36 32 32 25 17 13 61 11 33 12 27 14 11 13 19 26 27 39 42 41 42 45 40 32 40 39 30 26 21 18 13 7 8
17 18 21 24 25 29 36 40 38 35 36 34 30 24 21 31 23 35 41 57 36 27 21 15 14 20 27 33 36 37 40 44 40 40 33 41 32 27 22 18 13 7 7
22 21 24 26 29 33 40 44 41 36 34 33 32 33 30 28 29 36 52 57 46 34 29 26 20 19 23 24 29 38 37 36 42 35 36 41 31 29 24 18 11 10 10
26 27 26 27 32 35 40 44 43 40 36 34 32 31 30 32 37 35 54 58 60 51 44 30 23 18 22 23 23 35 38 37 34 31 36 40 29 29 25 19 13 12 6
32 30 28 30 34 36 40 44 43 39 38 37 34 33 33 36 37 38 44 56 58 61 52 34 21 11 15 14 24 32 34 34 29 29 37 34 31 31 27 22 13 17 11
36 33 30 34 35 37 42 45 47 42 39 38 38 36 38 40 39 39 43 47 58 46 47 47 20 14 11 14 13 26 31 32 32 32 37 35 31 31 31 24 20 14 30
40 34 33 36 37 40 43 45 45 43 42 41 41 41 44 43 43 40 41 40 41 47 52 49 40 20 23 21 16 20 26 23 27 35 39 36 31 31 34 32 20 23 27
38 35 36 37 40 42 45 47 48 46 46 47 48 49 50 52 50 47 49 50 49 51 58 54 56 45 32 31 30 21 28 27 25 30 34 33 35 35 38 28 23 19 22
35 34 35 39 43 45 48 51 51 50 52 52 51 52 56 58 66 60 48 45 47 49 59 63 54 51 46 35 27 28 27 26 26 32 40 39 39 39 40 32 26 22 17
31 33 38 44 48 48 50 53 54 53 55 57 57 57 62 65 69 71 53 55 55 49 50 57 55 49 43 39 35 31 34 34 24 29 56 45 43 42 39 32 28 25 16
33 37 44 50 52 51 53 54 57 60 62 62 62 65 71 72 73 63 57 57 56 56 51 51 52 46 46 39 40 34 30 31 29 30 44 54 52 45 38 36 32 26 17
36 42 49 53 54 53 57 61 65 69 70 71 71 75 78 77 68 63 62 62 61 61 60 55 53 49 46 35 41 37 34 32 36 37 36 63 58 50 44 42 33 29 20
42 46 51 53 54 58 63 69 74 77 80 81 82 81 78 73 64 63 65 66 65 64 60 60 60 58 50 36 36 35 37 37 39 43 39 64 64 57 52 48 38 30 24
42 47 51 54 58 63 70 74 78 82 82 80 78 78 76 74 68 67 74 80 79 77 73 69 67 60 56 47 32 34 37 46 44 47 44 65 70 65 57 54 39 31 23
46 49 52 57 64 71 74 78 75 71 67 68 70 72 75 71 66 67 70 70 71 74 79 79 82 77 68 63 48 41 43 49 57 53 52 63 73 69 60 47 40 31 30
48 52 58 64 71 72 71 67 60 58 63 67 69 70 70 70 67 65 69 71 70 74 76 78 82 84 82 78 68 53 43 49 58 55 57 67 74 68 57 49 39 39 33
53 61 66 68 68 66 63 59 56 63 73 76 76 76 74 77 77 73 70 71 71 69 60 59 69 73 73 73 74 67 60 48 59 69 65 62 69 69 56 51 42 38 36
63 63 63 63 64 65 60 65 69 75 84 90 92 94 94 92 89 85 74 75 83 80 70 68 69 72 74 72 68 67 68 69 56 62 71 64 67 67 47 53 44 42 41
Wind_Direction_500mb
220 242 254 264 265 269 272 276 279 277 276 277 277 281 281 275 271 276 298 308 299 278 282 295 302 298 304 307 307 295 293 304 316 322 320 320 340 326 336 342 348 355 348
232 258 270 275 278 280 280 282 285 287 283 278 276 277 278 271 280 271 281 298 315 287 273 282 291 290 296 297 300 296 285 292 304 312 316 319 332 323 333 338 344 347 354
59 7 352 346 334 320 313 304 300 294 293 292 292 289 281 273 268 273 274 286 289 297 286 277 277 284 281 292 294 296 283 283 292 301 307 311 322 319 323 327 339 339 356
40 15 1 354 347 339 336 332 326 320 317 314 311 307 299 288 273 266 268 274 282 288 293 286 285 282 279 283 286 286 280 275 281 289 296 304 311 311 316 318 324 336 345
32 15 1 357 353 346 342 337 335 331 328 325 322 321 316 313 304 284 272 270 268 273 284 296 296 276 280 285 285 280 275 270 273 282 287 297 303 304 306 311 317 336 335
19 5 358 357 355 347 341 338 339 338 337 333 332 331 329 328 312 295 306 307 301 275 276 284 286 276 279 280 280 282 278 273 269 275 281 287 292 294 297 302 318 332 327
336 351 355 355 358 351 346 343 341 339 339 338 337 337 353 343 268 271 331 332 340 295 289 296 289 288 284 279 273 285 295 281 268 270 273 278 284 282 289 294 303 328 318
303 335 344 352 1 359 351 345 342 343 342 346 347 346 344 358 100 325 301 309 312 310 281 285 287 285 285 280 278 278 281 289 286 265 265 269 276 275 277 286 289 322 306
291 319 330 349 356 356 353 352 346 339 337 346 344 343 338 320 321 327 322 315 333 295 283 282 288 302 291 282 278 286 279 281 283 278 258 263 267 270 273 277 280 316 279
282 313 323 336 342 348 351 348 343 339 333 336 339 335 308 297 321 318 310 316 320 311 292 286 290 315 303 280 285 296 286 279 273 275 266 256 258 263 261 266 267 289 241
278 302 303 322 331 341 343 342 339 335 328 330 330 326 320 310 301 301 310 313 317 319 310 301 297 317 299 290 288 290 288 280 279 267 262 255 251 263 257 259 255 259 218
269 286 297 314 325 330 330 334 332 331 329 326 323 320 317 317 316 312 306 311 314 315 313 307 298 301 319 308 299 294 287 285 278 267 256 252 246 253 255 254 236 231 169
266 279 295 307 316 315 320 326 327 326 323 322 319 317 316 312 304 299 300 305 309 311 315 308 302 306 349 337 315 298 290 283 277 266 253 254 240 247 246 250 226 208 184
267 274 286 299 303 308 315 324 325 325 321 318 315 313 313 317 305 297 297 301 307 311 315 317 311 256 298 310 322 307 295 282 272 267 257 255 234 242 243 240 221 198 205
264 269 285 293 298 307 314 317 319 320 316 315 313 311 311 313 309 295 289 289 289 299 305 309 310 287 283 290 295 302 297 285 268 264 246 242 233 237 239 228 223 218 214
262 276 287 296 301 304 312 315 319 319 314 314 311 309 310 312 311 296 285 281 278 280 285 282 290 292 295 285 285 289 297 282 266 255 247 237 227 234 237 236 226 234 250
267 280 291 298 304 307 312 315 317 316 312 310 307 304 305 309 307 302 286 283 284 281 279 284 283 285 279 284 288 274 281 284 270 245 251 230 221 234 235 235 236 237 251
267 284 296 302 306 309 311 312 313 312 310 307 306 302 301 300 298 298 288 283 283 278 278 284 286 282 279 267 283 280 274 269 269 242 241 223 222 231 237 230 236 242 245
276 291 300 302 304 309 308 310 312 311 309 305 303 298 295 294 297 293 282 281 284 286 283 286 286 286 282 270 265 277 280 272 262 245 250 220 223 228 235 232 233 243 242
282 291 297 300 304 308 310 311 310 309 306 302 297 293 289 289 289 289 283 278 279 280 283 282 280 282 282 281 260 266 267 265 256 242 256 226 226 225 230 234 232 232 236
276 287 296 299 305 306 308 307 306 304 301 298 296 291 286 285 277 277 276 275 276 278 278 277 277 278 276 276 266 258 264 258 243 253 243 216 221 227 228 229 229 232 233
273 282 288 296 300 302 302 301 300 298 298 298 300 299 294 292 283 272 266 264 265 269 268 269 272 272 273 265 264 253 259 252 237 233 240 225 225 230 232 235 229 229 232
267 279 290 295 296 298 299 299 299 299 299 297 296 298 296 290 287 282 277 272 267 259 256 258 261 260 263 265 259 254 251 253 254 246 232 228 223 227 230 232 226 226 230
275 284 289 292 296 299 300 300 300 296 295 295 296 295 292 290 288 288 285 278 273 267 258 253 253 256 257 259 263 251 246 256 253 252 235 217 219 224 228 230 234 220 224
284 290 292 295 298 299 299 302 308 308 305 301 297 293 288 287 285 285 280 281 278 274 273 263 259 259 257 252 257 255 240 239 234 237 232 238 223 220 223 230 224 218 217
289 290 294 296 299 302 307 311 315 309 300 297 294 290 287 284 282 280 275 272 270 269 272 271 265 262 261 251 243 247 236 229 234 229 228 226 226 219 208 222 220 220 217
Wind_Speed_850mb
19 20 24 29 32 32 31 30 32 34 33 33 33 34 31 35 35 37 29 33 30 24 35 34 37 36 34 34 34 31 29 26 24 23 25 22 20 21 20 18 17 16 14
10 9 12 16 21 25 29 31 31 34 37 43 45 45 43 32 25 27 26 25 30 30 32 36 35 41 38 39 36 35 31 27 26 24 25 22 20 20 19 17 18 16 15
3 9 13 16 17 19 21 23 24 27 29 31 32 32 34 34 30 26 26 31 28 32 36 42 37 41 38 42 39 37 32 29 29 26 26 22 18 20 18 16 18 17 14
8 14 19 22 23 24 25 25 26 26 29 32 34 32 31 33 37 42 40 37 39 35 23 29 39 42 40 45 41 35 34 31 32 28 28 22 18 18 17 14 14 17 14
10 17 20 23 26 26 27 28 29 33 36 36 36 34 33 29 24 26 36 43 39 33 30 28 29 42 46 42 43 42 34 33 35 33 31 25 21 18 18 15 13 15 14
9 15 18 23 25 26 28 29 30 31 34 38 39 37 35 27 13 7 9 14 19 28 33 29 30 35 40 43 40 45 37 33 37 36 34 29 22 19 17 16 11 13 14
6 13 16 21 25 28 30 33 33 33 34 40 43 39 27 23 14 5 4 8 14 12 21 24 24 30 41 43 43 44 44 42 36 40 38 31 25 22 16 17 10 12 13
8 13 15 21 25 27 30 33 36 36 34 38 43 40 29 18 5 26 13 16 16 14 14 18 26 35 38 43 43 46 48 46 38 37 41 35 28 24 17 18 10 9 11
12 15 16 20 23 29 35 38 36 36 36 32 32 25 17 13 61 11 33 12 27 14 11 13 19 26 27 39 42 41 42 45 40 32 40 39 30 26 21 18 13 7 8
17 18 21 24 25 29 36 40 38 35 36 34 30 24 21 31 23 35 41 57 36 27 21 15 14 20 27 33 36 37 40 44 40 40 33 41 32 27 22 18 13 7 7
22 21 24 26 29 33 40 44 41 36 34 33 32 33 30 28 29 36 52 57 46 34 29 26 20 19 23 24 29 38 37 36 42 35 36 41 31 29 24 18 11 10 10
26 27 26 27 32 35 40 44 43 40 36 34 32 31 30 32 37 35 54 58 60 51 44 30 23 18 22 23 23 35 38 37 34 31 36 40 29 29 25 19 13 12 6
32 30 28 30 34 36 40 44 43 39 38 37 34 33 33 36 37 38 44 56 58 61 52 34 21 11 15 14 24 32 34 34 29 29 37 34 31 31 27 22 13 17 11
36 33 30 34 35 37 42 45 47 42 39 38 38 36 38 40 39 39 43 47 58 46 47 47 20 14 11 14 13 26 31 32 32 32 37 35 31 31 31 24 20 14 30
40 34 33 36 37 40 43 45 45 43 42 41 41 41 44 43 43 40 41 40 41 47 52 49 40 20 23 21 16 20 26 23 27 35 39 36 31 31 34 32 20 23 27
38 35 36 37 40 42 45 47 48 46 46 47 48 49 50 52 50 47 49 50 49 51 58 54 56 45 32 31 30 21 28 27 25 30 34 33 35 35 38 28 23 19 22
35 34 35 39 43 45 48 51 51 50 52 52 51 52 56 58 66 60 48 45 47 49 59 63 54 51 46 35 27 28 27 26 26 32 40 39 39 39 40 32 26 22 17
31 33 38 44 48 48 50 53 54 53 55 57 57 57 62 65 69 71 53 55 55 49 50 57 55 49 43 39 35 31 34 34 24 29 56 45 43 42 39 32 28 25 16
33 37 44 50 52 51 53 54 57 60 62 62 62 65 71 72 73 63 57 57 56 56 51 51 52 46 46 39 40 34 30 31 29 30 44 54 52 45 38 36 32 26 17
36 42 49 53 54 53 57 61 65 69 70 71 71 75 78 77 68 63 62 62 61 61 60 55 53 49 46 35 41 37 34 32 36 37 36 63 58 50 44 42 33 29 20
42 46 51 53 54 58 63 69 74 77 80 81 82 81 78 73 64 63 65 66 65 64 60 60 60 58 50 36 36 35 37 37 39 43 39 64 64 57 52 48 38 30 24
42 47 51 54 58 63 70 74 78 82 82 80 78 78 76 74 68 67 74 80 79 77 73 69 67 60 56 47 32 34 37 46 44 47 44 65 70 65 57 54 39 31 23
46 49 52 57 64 71 74 78 75 71 67 68 70 72 75 71 66 67 70 70 71 74 79 79 82 77 68 63 48 41 43 49 57 53 52 63 73 69 60 47 40 31 30
48 52 58 64 71 72 71 67 60 58 63 67 69 70 70 70 67 65 69 71 70 74 76 78 82 84 82 78 68 53 43 49 58 55 57 67 74 68 57 49 39 39 33
53 61 66 68 68 66 63 59 56 63 73 76 76 76 74 77 77 73 70 71 71 69 60 59 69 73 73 73 74 67 60 48 59 69 65 62 69 69 56 51 42 38 36
63 63 63 63 64 65 60 65 69 75 84 90 92 94 94 92 89 85 74 75 83 80 70 68 69 72 74 72 68 67 68 69 56 62 71 64 67 67 47 53 44 42 41
Wind_Direction_850mb
220 242 254 264 265 269 272 276 279 277 276 277 277 281 281 275 271 276 298 308 299 278 282 295 302 298 304 307 307 295 293 304 316 322 320 320 340 326 336 342 348 355 348
232 258 270 275 278 280 280 282 285 287 283 278 276 277 278 271 280 271 281 298 315 287 273 282 291 290 296 297 300 296 285 292 304 312 316 319 332 323 333 338 344 347 354
59 7 352 346 334 320 313 304 300 294 293 292 292 289 281 273 268 273 274 286 289 297 286 277 277 284 281 292 294 296 283 283 292 301 307 311 322 319 323 327 339 339 356
40 15 1 354 347 339 336 332 326 320 317 314 311 307 299 288 273 266 268 274 282 288 293 286 285 282 279 283 286 286 280 275 281 289 296 304 311 311 316 318 324 336 345
32 15 1 357 353 346 342 337 335 331 328 325 322 321 316 313 304 284 272 270 268 273 284 296 296 276 280 285 285 280 275 270 273 282 287 297 303 304 306 311 317 336 335
19 5 358 357 355 347 341 338 339 338 337 333 332 331 329 328 312 295 306 307 301 275 276 284 286 276 279 280 280 282 278 273 269 275 281 287 292 294 297 302 318 332 327
336 351 355 355 358 351 346 343 341 339 339 338 337 337 353 343 268 271 331 332 340 295 289 296 289 288 284 279 273 285 295 281 268 270 273 278 284 282 289 294 303 328 318
303 335 344 352 1 359 351 345 342 343 342 346 347 346 344 358 100 325 301 309 312 310 281 285 287 285 285 280 278 278 281 289 286 265 265 269 276 275 277 286 289 322 306
291 319 330 349 356 356 353 352 346 339 337 346 344 343 338 320 321 327 322 315 333 295 283 282 288 302 291 282 278 286 279 281 283 278 258 263 267 270 273 277 280 316 279
282 313 323 336 342 348 351 348 343 339 333 336 339 335 308 297 321 318 310 316 320 311 292 286 290 315 303 280 285 296 286 279 273 275 266 256 258 263 261 266 267 289 241
278 302 303 322 331 341 343 342 339 335 328 330 330 326 320 310 301 301 310 313 317 319 310 301 297 317 299 290 288 290 288 280 279 267 262 255 251 263 257 259 255 259 218
269 286 297 314 325 330 330 334 332 331 329 326 323 320 317 317 316 312 306 311 314 315 313 307 298 301 319 308 299 294 287 285 278 267 256 252 246 253 255 254 236 231 169
266 279 295 307 316 315 320 326 327 326 323 322 319 317 316 312 304 299 300 305 309 311 315 308 302 306 349 337 315 298 290 283 277 266 253 254 240 247 246 250 226 208 184
267 274 286 299 303 308 315 324 325 325 321 318 315 313 313 317 305 297 297 301 307 311 315 317 311 256 298 310 322 307 295 282 272 267 257 255 234 242 243 240 221 198 205
264 269 285 293 298 307 314 317 319 320 316 315 313 311 311 313 309 295 289 289 289 299 305 309 310 287 283 290 295 302 297 285 268 264 246 242 233 237 239 228 223 218 214
262 276 287 296 301 304 312 315 319 319 314 314 311 309 310 312 311 296 285 281 278 280 285 282 290 292 295 285 285 289 297 282 266 255 247 237 227 234 237 236 226 234 250
267 280 291 298 304 307 312 315 317 316 312 310 307 304 305 309 307 302 286 283 284 281 279 284 283 285 279 284 288 274 281 284 270 245 251 230 221 234 235 235 236 237 251
267 284 296 302 306 309 311 312 313 312 310 307 306 302 301 300 298 298 288 283 283 278 278 284 286 282 279 267 283 280 274 269 269 242 241 223 222 231 237 230 236 242 245
276 291 300 302 304 309 308 310 312 311 309 305 303 298 295 294 297 293 282 281 284 286 283 286 286 286 282 270 265 277 280 272 262 245 250 220 223 228 235 232 233 243 242
282 291 297 300 304 308 310 311 310 309 306 302 297 293 289 289 289 289 283 278 279 280 283 282 280 282 282 281 260 266 267 265 256 242 256 226 226 225 230 234 232 232 236
276 287 296 299 305 306 308 307 306 304 301 298 296 291 286 285 277 277 276 275 276 278 278 277 277 278 276 276 266 258 264 258 243 253 243 216 221 227 228 229 229 232 233
273 282 288 296 300 302 302 301 300 298 298 298 300 299 294 292 283 272 266 264 265 269 268 269 272 272 273 265 264 253 259 252 237 233 240 225 225 230 232 235 229 229 232
267 279 290 295 296 298 299 299 299 299 299 297 296 298 296 290 287 282 277 272 267 259 256 258 261 260 263 265 259 254 251 253 254 246 232 228 223 227 230 232 226 226 230
275 284 289 292 296 299 300 300 300 296 295 295 296 295 292 290 288 288 285 278 273 267 258 253 253 256 257 259 263 251 246 256 253 252 235 217 219 224 228 230 234 220 224
284 290 292 295 298 299 299 302 308 308 305 301 297 293 288 287 285 285 280 281 278 274 273 263 259 259 257 252 257 255 240 239 234 237 232 238 223 220 223 230 224 218 217
289 290 294 296 299 302 307 311 315 309 300 297 294 290 287 284 282 280 275 272 270 269 272 271 265 262 261 251 243 247 236 229 234 229 228 226 226 219 208 222 220 220 217